TimeCDT,TemperatureF,Dew PointF,Humidity,Sea Level PressureIn,VisibilityMPH,Wind Direction,Wind SpeedMPH,Gust SpeedMPH,PrecipitationIn,Events,Conditions,WindDirDegrees,DateUTC
12:51 AM,70.0,61.0,73,29.75,10.0,South,11.5,-,N/A,,Clear,190,2013-10-31 05:51:00
1:51 AM,71.1,60.1,68,29.76,10.0,SSW,15.0,21.9,N/A,,Clear,210,2013-10-31 06:51:00
2:19 AM,69.8,62.6,78,29.83,10.0,WNW,18.4,24.2,N/A,,Partly Cloudy,300,2013-10-31 07:19:00
2:51 AM,69.1,60.1,73,29.78,10.0,West,16.1,25.3,N/A,,Clear,270,2013-10-31 07:51:00
3:51 AM,71.1,57.0,61,29.76,10.0,WSW,13.8,-,N/A,,Scattered Clouds,250,2013-10-31 08:51:00
4:51 AM,68.0,57.9,70,29.76,10.0,WSW,9.2,-,N/A,,Clear,240,2013-10-31 09:51:00
5:51 AM,64.9,59.0,81,29.79,10.0,WSW,4.6,-,N/A,,Clear,250,2013-10-31 10:51:00
6:51 AM,66.0,55.0,68,29.83,10.0,West,12.7,-,N/A,,Clear,280,2013-10-31 11:51:00
7:51 AM,63.0,48.9,60,29.88,10.0,WNW,11.5,-,N/A,,Clear,290,2013-10-31 12:51:00
8:51 AM,61.0,39.9,46,29.92,10.0,West,12.7,-,N/A,,Clear,280,2013-10-31 13:51:00
9:51 AM,63.0,34.0,34,29.95,10.0,West,10.4,-,N/A,,Clear,270,2013-10-31 14:51:00
10:51 AM,66.0,33.1,29,29.94,10.0,WNW,16.1,26.5,N/A,,Clear,290,2013-10-31 15:51:00
11:51 AM,69.1,32.0,25,29.93,10.0,WNW,19.6,25.3,N/A,,Clear,300,2013-10-31 16:51:00
12:51 PM,71.1,30.0,22,29.91,10.0,WNW,20.7,27.6,N/A,,Clear,290,2013-10-31 17:51:00
1:51 PM,73.0,28.9,20,29.87,10.0,WNW,18.4,27.6,N/A,,Clear,300,2013-10-31 18:51:00
2:51 PM,73.9,28.9,19,29.85,10.0,WNW,19.6,25.3,N/A,,Clear,300,2013-10-31 19:51:00
3:51 PM,75.0,28.0,18,29.83,10.0,WNW,16.1,24.2,N/A,,Clear,290,2013-10-31 20:51:00
4:51 PM,75.0,28.0,18,29.83,10.0,WNW,15.0,21.9,N/A,,Clear,300,2013-10-31 21:51:00
5:51 PM,73.0,28.9,20,29.84,10.0,WNW,8.1,-,N/A,,Clear,290,2013-10-31 22:51:00
6:51 PM,64.9,34.0,32,29.85,10.0,WSW,6.9,-,N/A,,Clear,250,2013-10-31 23:51:00
7:51 PM,57.9,35.1,42,29.87,10.0,SW,8.1,-,N/A,,Clear,220,2013-11-01 00:51:00
8:51 PM,53.1,39.0,59,29.87,10.0,SW,5.8,-,N/A,,Clear,220,2013-11-01 01:51:00
9:51 PM,51.1,37.9,61,29.87,10.0,SSW,10.4,-,N/A,,Clear,200,2013-11-01 02:51:00
10:51 PM,53.1,36.0,52,29.88,10.0,South,8.1,-,N/A,,Clear,190,2013-11-01 03:51:00
11:51 PM,48.9,37.0,64,29.89,10.0,SW,6.9,-,N/A,,Clear,230,2013-11-01 04:51:00